Location: Unspecified
(43.3116°N, 2.0147°W)
Time: 04:06:08
(UTC+02:00)

Cosmos 2058 - Visible Passes

Search period start: 04 July 2022 00:00
Search period end: 14 July 2022 00:00
Orbit: 560 x 580 km, 82.5° (Epoch: 03 July)

Date Brightness Start Highest point End Pass type
(mag) Time Alt. Az. Time Alt. Az. Time Alt. Az.
04 Jul 4.3 01:22:16 27° E 01:22:16 27° E 01:25:34 10° NNE visible
04 Jul 4.5 02:58:24 24° W 02:58:48 24° WNW 03:02:15 10° NNW visible
05 Jul 3.9 01:24:13 34° E 01:24:13 34° E 01:27:46 10° NNE visible
05 Jul 4.8 03:00:20 19° W 03:00:53 19° WNW 03:03:57 10° NNW visible
06 Jul 3.5 01:26:09 44° E 01:26:09 44° E 01:29:54 10° NNE visible
06 Jul 5.1 03:02:16 15° W 03:02:59 16° WNW 03:05:33 10° NNW visible
07 Jul 3.1 01:28:04 58° E 01:28:04 58° E 01:31:59 10° NNE visible
07 Jul 5.4 03:04:11 12° W 03:05:07 12° WNW 03:06:53 10° NW visible
08 Jul 2.9 01:29:59 76° ENE 01:29:59 76° ENE 01:34:01 10° NNE visible
09 Jul 2.8 01:31:52 82° WNW 01:31:52 82° WNW 01:36:02 10° N visible
09 Jul 5.2 23:57:37 11° E 23:57:37 11° E 23:58:32 10° ENE visible
10 Jul 3.1 01:33:45 63° W 01:33:50 63° W 01:38:00 10° N visible
10 Jul 5.0 23:59:29 14° E 23:59:29 14° E 00:01:36 10° NE visible
11 Jul 3.5 01:35:36 48° W 01:35:51 48° WNW 01:39:55 10° N visible
12 Jul 4.7 00:01:20 17° E 00:01:21 17° E 00:04:08 10° NE visible
12 Jul 3.9 01:37:27 36° W 01:37:53 38° WNW 01:41:48 10° N visible
13 Jul 4.4 00:03:10 22° E 00:03:15 22° E 00:06:29 10° NE visible
13 Jul 4.3 01:39:17 28° W 01:39:56 30° WNW 01:43:37 10° NNW visible
